Year,Month,Day,Hour,Minute,Value (Times are PST for temperature in C)
2017,05,26,00,00,10.20
2017,05,26,00,01,10.20
2017,05,26,00,02,10.20
2017,05,26,00,03,10.20
2017,05,26,00,04,10.20
2017,05,26,00,05,10.10
2017,05,26,00,06,10.10
2017,05,26,00,07,10.10
2017,05,26,00,08,10.10
2017,05,26,00,09,10.10
2017,05,26,00,10,10.00
2017,05,26,00,11,10.00
2017,05,26,00,12,10.00
2017,05,26,00,13,10.00
2017,05,26,00,14,9.90
2017,05,26,00,15,9.90
2017,05,26,00,16,9.90
2017,05,26,00,17,9.90
2017,05,26,00,18,9.90
2017,05,26,00,19,9.90
2017,05,26,00,20,9.90
2017,05,26,00,21,9.90
2017,05,26,00,22,9.90
2017,05,26,00,23,9.90
2017,05,26,00,24,9.90
2017,05,26,00,25,9.90
2017,05,26,00,26,9.90
2017,05,26,00,27,9.90
2017,05,26,00,28,9.90
2017,05,26,00,29,9.90
2017,05,26,00,30,9.90
2017,05,26,00,31,9.90
2017,05,26,00,32,9.90
2017,05,26,00,33,9.80
2017,05,26,00,34,9.80
2017,05,26,00,35,9.80
2017,05,26,00,36,9.80
2017,05,26,00,37,9.80
2017,05,26,00,38,9.80
2017,05,26,00,39,9.80
2017,05,26,00,40,9.70
2017,05,26,00,41,9.70
2017,05,26,00,42,9.70
2017,05,26,00,43,9.70
2017,05,26,00,44,9.70
2017,05,26,00,45,9.60
2017,05,26,00,46,9.60
2017,05,26,00,47,9.60
2017,05,26,00,48,9.60
2017,05,26,00,49,9.60
2017,05,26,00,50,9.60
2017,05,26,00,51,9.60
2017,05,26,00,52,9.60
2017,05,26,00,53,9.60
2017,05,26,00,54,9.50
2017,05,26,00,55,9.50
2017,05,26,00,56,9.50
2017,05,26,00,57,9.50
2017,05,26,00,58,9.50
2017,05,26,00,59,9.40
2017,05,26,01,00,9.40
2017,05,26,01,01,9.40
2017,05,26,01,02,9.40
2017,05,26,01,03,9.40
2017,05,26,01,04,9.30
2017,05,26,01,05,9.30
2017,05,26,01,06,9.30
2017,05,26,01,07,9.30
2017,05,26,01,08,9.30
2017,05,26,01,09,9.20
2017,05,26,01,10,9.20
2017,05,26,01,11,9.20
2017,05,26,01,12,9.20
2017,05,26,01,13,9.20
2017,05,26,01,14,9.20
2017,05,26,01,15,9.20
2017,05,26,01,16,9.20
2017,05,26,01,17,9.20
2017,05,26,01,18,9.20
2017,05,26,01,19,9.20
2017,05,26,01,20,9.20
2017,05,26,01,21,9.20
2017,05,26,01,22,9.20
2017,05,26,01,23,9.20
2017,05,26,01,24,9.20
2017,05,26,01,25,9.20
2017,05,26,01,26,9.20
2017,05,26,01,27,9.20
2017,05,26,01,28,9.20
2017,05,26,01,29,9.20
2017,05,26,01,30,9.20
2017,05,26,01,31,9.20
2017,05,26,01,32,9.20
2017,05,26,01,33,9.20
2017,05,26,01,34,9.20
2017,05,26,01,35,9.20
2017,05,26,01,36,9.20
2017,05,26,01,37,9.20
2017,05,26,01,38,9.20
2017,05,26,01,39,9.20
2017,05,26,01,40,9.20
2017,05,26,01,41,9.10
2017,05,26,01,42,9.10
2017,05,26,01,43,9.10
2017,05,26,01,44,9.10
2017,05,26,01,45,9.10
2017,05,26,01,46,9.20
2017,05,26,01,47,9.20
2017,05,26,01,48,9.20
2017,05,26,01,49,9.20
2017,05,26,01,50,9.20
2017,05,26,01,51,9.20
2017,05,26,01,52,9.20
2017,05,26,01,53,9.20
2017,05,26,01,54,9.20
2017,05,26,01,55,9.20
2017,05,26,01,56,9.20
2017,05,26,01,57,9.20
2017,05,26,01,58,9.20
2017,05,26,01,59,9.20
2017,05,26,02,00,9.20
2017,05,26,02,01,9.20
2017,05,26,02,02,9.20
2017,05,26,02,03,9.20
2017,05,26,02,04,9.20
2017,05,26,02,05,9.20
2017,05,26,02,06,9.20
2017,05,26,02,07,9.20
2017,05,26,02,08,9.20
2017,05,26,02,09,9.20
2017,05,26,02,10,9.20
2017,05,26,02,11,9.20
2017,05,26,02,12,9.20
2017,05,26,02,13,9.20
2017,05,26,02,14,9.20
2017,05,26,02,15,9.20
2017,05,26,02,16,9.10
2017,05,26,02,17,9.10
2017,05,26,02,18,9.10
2017,05,26,02,19,9.10
2017,05,26,02,20,9.10
2017,05,26,02,21,9.10
2017,05,26,02,22,9.00
2017,05,26,02,23,9.00
2017,05,26,02,24,9.00
2017,05,26,02,25,8.90
2017,05,26,02,26,8.90
2017,05,26,02,27,8.90
2017,05,26,02,28,8.90
2017,05,26,02,29,8.90
2017,05,26,02,30,8.90
2017,05,26,02,31,8.90
2017,05,26,02,32,8.90
2017,05,26,02,33,8.90
2017,05,26,02,34,8.90
2017,05,26,02,35,8.90
2017,05,26,02,36,8.90
2017,05,26,02,37,8.90
2017,05,26,02,38,8.90
2017,05,26,02,39,8.90
2017,05,26,02,40,8.90
2017,05,26,02,41,8.80
2017,05,26,02,42,8.80
2017,05,26,02,43,8.80
2017,05,26,02,44,8.80
2017,05,26,02,45,8.80
2017,05,26,02,46,8.80
2017,05,26,02,47,8.70
2017,05,26,02,48,8.70
2017,05,26,02,49,8.70
2017,05,26,02,50,8.70
2017,05,26,02,51,8.70
2017,05,26,02,52,8.70
2017,05,26,02,53,8.70
2017,05,26,02,54,8.70
2017,05,26,02,55,8.80
2017,05,26,02,56,8.80
2017,05,26,02,57,8.80
2017,05,26,02,58,8.80
2017,05,26,02,59,8.80
2017,05,26,03,00,8.80
2017,05,26,03,01,8.80
2017,05,26,03,02,8.70
2017,05,26,03,03,8.70
2017,05,26,03,04,8.70
2017,05,26,03,05,8.70
2017,05,26,03,06,8.70
2017,05,26,03,07,8.70
2017,05,26,03,08,8.60
2017,05,26,03,09,8.60
2017,05,26,03,10,8.60
2017,05,26,03,11,8.60
2017,05,26,03,12,8.60
2017,05,26,03,13,8.60
2017,05,26,03,14,8.60
2017,05,26,03,15,8.60
2017,05,26,03,16,8.50
2017,05,26,03,17,8.50
2017,05,26,03,18,8.50
2017,05,26,03,19,8.50
2017,05,26,03,20,8.50
2017,05,26,03,21,8.40
2017,05,26,03,22,8.40
2017,05,26,03,23,8.40
2017,05,26,03,24,8.50
2017,05,26,03,25,8.50
2017,05,26,03,26,8.50
2017,05,26,03,27,8.50
2017,05,26,03,28,8.50
2017,05,26,03,29,8.50
2017,05,26,03,30,8.50
2017,05,26,03,31,8.50
2017,05,26,03,32,8.50
2017,05,26,03,33,8.40
2017,05,26,03,34,8.40
2017,05,26,03,35,8.40
2017,05,26,03,36,8.40
2017,05,26,03,37,8.40
2017,05,26,03,38,8.40
2017,05,26,03,39,8.40
2017,05,26,03,40,8.40
2017,05,26,03,41,8.40
2017,05,26,03,42,8.40
2017,05,26,03,43,8.40
2017,05,26,03,44,8.40
2017,05,26,03,45,8.30
2017,05,26,03,46,8.30
2017,05,26,03,47,8.30
2017,05,26,03,48,8.30
2017,05,26,03,49,8.30
2017,05,26,03,50,8.30
2017,05,26,03,51,8.30
2017,05,26,03,52,8.20
2017,05,26,03,53,8.20
2017,05,26,03,54,8.20
2017,05,26,03,55,8.20
2017,05,26,03,56,8.20
2017,05,26,03,57,8.20
2017,05,26,03,58,8.20
2017,05,26,03,59,8.20
2017,05,26,04,00,8.20
2017,05,26,04,01,8.10
2017,05,26,04,02,8.10
2017,05,26,04,03,8.10
2017,05,26,04,04,8.10
2017,05,26,04,05,8.10
2017,05,26,04,06,8.10
2017,05,26,04,07,8.00
2017,05,26,04,08,8.00
2017,05,26,04,09,8.00
2017,05,26,04,10,8.00
2017,05,26,04,11,7.90
2017,05,26,04,12,7.90
2017,05,26,04,13,7.90
2017,05,26,04,14,7.90
2017,05,26,04,15,7.90
2017,05,26,04,16,7.90
2017,05,26,04,17,7.90
2017,05,26,04,18,7.90
2017,05,26,04,19,7.90
2017,05,26,04,20,7.90
2017,05,26,04,21,7.90
2017,05,26,04,22,7.90
2017,05,26,04,23,7.90
2017,05,26,04,24,7.90
2017,05,26,04,25,7.90
2017,05,26,04,26,7.90
2017,05,26,04,27,7.90
2017,05,26,04,28,7.90
2017,05,26,04,29,7.90
2017,05,26,04,30,7.90
2017,05,26,04,31,7.90
2017,05,26,04,32,7.90
2017,05,26,04,33,7.80
2017,05,26,04,34,7.80
2017,05,26,04,35,7.80
2017,05,26,04,36,7.80
2017,05,26,04,37,7.80
2017,05,26,04,38,7.80
2017,05,26,04,39,7.80
2017,05,26,04,40,7.80
2017,05,26,04,41,7.80
2017,05,26,04,42,7.80
2017,05,26,04,43,7.80
2017,05,26,04,44,7.80
2017,05,26,04,45,7.80
2017,05,26,04,46,7.80
2017,05,26,04,47,7.80
2017,05,26,04,48,7.80
2017,05,26,04,49,7.80
2017,05,26,04,50,7.80
2017,05,26,04,51,7.80
2017,05,26,04,52,7.80
2017,05,26,04,53,7.80
2017,05,26,04,54,7.80
2017,05,26,04,55,7.80
2017,05,26,04,56,7.80
2017,05,26,04,57,7.80
2017,05,26,04,58,7.80
2017,05,26,04,59,7.80
2017,05,26,05,00,7.80
2017,05,26,05,01,7.80
2017,05,26,05,02,7.80
2017,05,26,05,03,7.90
2017,05,26,05,04,7.90
2017,05,26,05,05,8.00
2017,05,26,05,06,8.00
2017,05,26,05,07,8.00
2017,05,26,05,08,8.10
2017,05,26,05,09,8.10
2017,05,26,05,10,8.10
2017,05,26,05,11,8.10
2017,05,26,05,12,8.10
2017,05,26,05,13,8.10
2017,05,26,05,14,8.10
2017,05,26,05,15,8.20
2017,05,26,05,16,8.20
2017,05,26,05,17,8.20
2017,05,26,05,18,8.20
2017,05,26,05,19,8.20
2017,05,26,05,20,8.20
2017,05,26,05,21,8.30
2017,05,26,05,22,8.30
2017,05,26,05,23,8.30
2017,05,26,05,24,8.30
2017,05,26,05,25,8.30
2017,05,26,05,26,8.30
2017,05,26,05,27,8.30
2017,05,26,05,28,8.30
2017,05,26,05,29,8.30
2017,05,26,05,30,8.30
2017,05,26,05,31,8.30
2017,05,26,05,32,8.40
2017,05,26,05,33,8.40
2017,05,26,05,34,8.40
2017,05,26,05,35,8.40
2017,05,26,05,36,8.40
2017,05,26,05,37,8.40
2017,05,26,05,38,8.40
2017,05,26,05,39,8.40
2017,05,26,05,40,8.40
2017,05,26,05,41,8.40
2017,05,26,05,42,8.40
2017,05,26,05,43,8.40
2017,05,26,05,44,8.40
2017,05,26,05,45,8.40
2017,05,26,05,46,8.40
2017,05,26,05,47,8.40
2017,05,26,05,48,8.40
2017,05,26,05,49,8.40
2017,05,26,05,50,8.40
2017,05,26,05,51,8.50
2017,05,26,05,52,8.50
2017,05,26,05,53,8.50
2017,05,26,05,54,8.50
2017,05,26,05,55,8.60
2017,05,26,05,56,8.60
2017,05,26,05,57,8.60
2017,05,26,05,58,8.60
2017,05,26,05,59,8.60
2017,05,26,06,00,8.60
2017,05,26,06,01,8.60
2017,05,26,06,02,8.60
2017,05,26,06,03,8.60
2017,05,26,06,04,8.60
2017,05,26,06,05,8.50
2017,05,26,06,06,8.50
2017,05,26,06,07,8.50
2017,05,26,06,08,8.50
2017,05,26,06,09,8.50
2017,05,26,06,10,8.40
2017,05,26,06,11,8.40
2017,05,26,06,12,8.40
2017,05,26,06,13,8.40
2017,05,26,06,14,8.50
2017,05,26,06,15,8.50
2017,05,26,06,16,8.50
2017,05,26,06,17,8.50
2017,05,26,06,18,8.60
2017,05,26,06,19,8.60
2017,05,26,06,20,8.60
2017,05,26,06,21,8.70
2017,05,26,06,22,8.70
2017,05,26,06,23,8.80
2017,05,26,06,24,8.80
2017,05,26,06,25,8.80
2017,05,26,06,26,8.80
2017,05,26,06,27,8.80
2017,05,26,06,28,8.90
2017,05,26,06,29,8.90
2017,05,26,06,30,8.90
2017,05,26,06,31,8.90
2017,05,26,06,32,8.90
2017,05,26,06,33,8.90
2017,05,26,06,34,8.90
2017,05,26,06,35,8.90
2017,05,26,06,36,8.90
2017,05,26,06,37,8.90
2017,05,26,06,38,8.90
2017,05,26,06,39,9.00
2017,05,26,06,40,9.00
2017,05,26,06,41,9.00
2017,05,26,06,42,9.00
2017,05,26,06,43,9.00
2017,05,26,06,44,9.10
2017,05,26,06,45,9.10
2017,05,26,06,46,9.10
2017,05,26,06,47,9.10
2017,05,26,06,48,9.10
2017,05,26,06,49,9.20
2017,05,26,06,50,9.20
2017,05,26,06,51,9.20
2017,05,26,06,52,9.20
2017,05,26,06,53,9.20
2017,05,26,06,54,9.30
2017,05,26,06,55,9.30
2017,05,26,06,56,9.30
2017,05,26,06,57,9.40
2017,05,26,06,58,9.50
2017,05,26,06,59,9.60
2017,05,26,07,00,9.60
2017,05,26,07,01,9.70
2017,05,26,07,02,9.70
2017,05,26,07,03,9.70
2017,05,26,07,04,9.80
2017,05,26,07,05,9.80
2017,05,26,07,06,9.90
2017,05,26,07,07,10.00
2017,05,26,07,08,10.00
2017,05,26,07,09,10.10
2017,05,26,07,10,10.10
2017,05,26,07,11,10.20
2017,05,26,07,12,10.20
2017,05,26,07,13,10.30
2017,05,26,07,14,10.30
2017,05,26,07,15,10.40
2017,05,26,07,16,10.50
2017,05,26,07,17,10.50
2017,05,26,07,18,10.60
2017,05,26,07,19,10.60
2017,05,26,07,20,10.70
2017,05,26,07,21,10.70
2017,05,26,07,22,10.80
2017,05,26,07,23,10.80
2017,05,26,07,24,10.80
2017,05,26,07,25,10.80
2017,05,26,07,26,10.90
2017,05,26,07,27,10.90
2017,05,26,07,28,11.00
2017,05,26,07,29,11.00
2017,05,26,07,30,11.10
2017,05,26,07,31,11.10
2017,05,26,07,32,11.10
2017,05,26,07,33,11.20
2017,05,26,07,34,11.20
2017,05,26,07,35,11.20
2017,05,26,07,36,11.30
2017,05,26,07,37,11.30
2017,05,26,07,38,11.40
2017,05,26,07,39,11.40
2017,05,26,07,40,11.50
2017,05,26,07,41,11.50
2017,05,26,07,42,11.60
2017,05,26,07,43,11.60
2017,05,26,07,44,11.60
2017,05,26,07,45,11.70
2017,05,26,07,46,11.70
2017,05,26,07,47,11.80
2017,05,26,07,48,11.80
2017,05,26,07,49,11.90
2017,05,26,07,50,12.00
2017,05,26,07,51,12.00
2017,05,26,07,52,12.10
2017,05,26,07,53,12.20
2017,05,26,07,54,12.30
2017,05,26,07,55,12.30
2017,05,26,07,56,12.40
2017,05,26,07,57,12.40
2017,05,26,07,58,12.50
2017,05,26,07,59,12.60
2017,05,26,08,00,12.60
2017,05,26,08,01,12.60
2017,05,26,08,02,12.70
2017,05,26,08,03,12.80
2017,05,26,08,04,12.80
2017,05,26,08,05,12.90
2017,05,26,08,06,12.90
2017,05,26,08,07,13.00
2017,05,26,08,08,13.10
2017,05,26,08,09,13.10
2017,05,26,08,10,13.20
2017,05,26,08,11,13.20
2017,05,26,08,12,13.30
2017,05,26,08,13,13.30
2017,05,26,08,14,13.40
2017,05,26,08,15,13.40
2017,05,26,08,16,13.50
2017,05,26,08,17,13.50
2017,05,26,08,18,13.50
2017,05,26,08,19,13.60
2017,05,26,08,20,13.60
2017,05,26,08,21,13.60
2017,05,26,08,22,13.60
2017,05,26,08,23,13.70
2017,05,26,08,24,13.70
2017,05,26,08,25,13.70
2017,05,26,08,26,13.70
2017,05,26,08,27,13.80
2017,05,26,08,28,13.80
2017,05,26,08,29,13.80
2017,05,26,08,30,13.90
2017,05,26,08,31,13.90
2017,05,26,08,32,14.00
2017,05,26,08,33,14.10
2017,05,26,08,34,14.10
2017,05,26,08,35,14.20
2017,05,26,08,36,14.30
2017,05,26,08,37,14.30
2017,05,26,08,38,14.40
2017,05,26,08,39,14.40
2017,05,26,08,40,14.50
2017,05,26,08,41,14.60
2017,05,26,08,42,14.60
2017,05,26,08,43,14.70
2017,05,26,08,44,14.70
2017,05,26,08,45,14.70
2017,05,26,08,46,14.80
2017,05,26,08,47,14.80
2017,05,26,08,48,14.90
2017,05,26,08,49,14.90
2017,05,26,08,50,14.90
2017,05,26,08,51,15.00
2017,05,26,08,52,15.10
2017,05,26,08,53,15.10
2017,05,26,08,54,15.20
2017,05,26,08,55,15.20
2017,05,26,08,56,15.20
2017,05,26,08,57,15.30
2017,05,26,08,58,15.30
2017,05,26,08,59,15.30
2017,05,26,09,00,15.40
2017,05,26,09,01,15.50
2017,05,26,09,02,15.60
2017,05,26,09,03,15.60
2017,05,26,09,04,15.70
2017,05,26,09,05,15.70
2017,05,26,09,06,15.80
2017,05,26,09,07,15.80
2017,05,26,09,08,15.80
2017,05,26,09,09,15.90
2017,05,26,09,10,15.90
2017,05,26,09,11,15.90
2017,05,26,09,12,15.90
2017,05,26,09,13,16.00
2017,05,26,09,14,16.00
2017,05,26,09,15,16.10
2017,05,26,09,16,16.10
2017,05,26,09,17,16.10
2017,05,26,09,18,16.10
2017,05,26,09,19,16.20
2017,05,26,09,20,16.20
2017,05,26,09,21,16.30
2017,05,26,09,22,16.30
2017,05,26,09,23,16.30
2017,05,26,09,24,16.20
2017,05,26,09,25,16.10
2017,05,26,09,26,16.10
2017,05,26,09,27,16.00
2017,05,26,09,28,16.00
2017,05,26,09,29,16.00
2017,05,26,09,30,16.10
2017,05,26,09,31,16.10
2017,05,26,09,32,16.20
2017,05,26,09,33,16.30
2017,05,26,09,34,16.30
2017,05,26,09,35,16.40
2017,05,26,09,36,16.50
2017,05,26,09,37,16.50
2017,05,26,09,38,16.50
2017,05,26,09,39,16.40
2017,05,26,09,40,16.30
2017,05,26,09,41,16.30
2017,05,26,09,42,16.30
2017,05,26,09,43,16.30
2017,05,26,09,44,16.30
2017,05,26,09,45,16.30
2017,05,26,09,46,16.30
2017,05,26,09,47,16.30
2017,05,26,09,48,16.40
2017,05,26,09,49,16.40
2017,05,26,09,50,16.50
2017,05,26,09,51,16.60
2017,05,26,09,52,16.70
2017,05,26,09,53,16.80
2017,05,26,09,54,16.90
2017,05,26,09,55,16.90
2017,05,26,09,56,16.90
2017,05,26,09,57,16.90
2017,05,26,09,58,16.90
2017,05,26,09,59,16.90
2017,05,26,10,00,16.90
2017,05,26,10,01,17.00
2017,05,26,10,02,17.00
2017,05,26,10,03,17.10
2017,05,26,10,04,17.10
2017,05,26,10,05,17.20
2017,05,26,10,06,17.20
2017,05,26,10,07,17.30
2017,05,26,10,08,17.40
2017,05,26,10,09,17.50
2017,05,26,10,10,17.50
2017,05,26,10,11,17.50
2017,05,26,10,12,17.50
2017,05,26,10,13,17.50
2017,05,26,10,14,17.50
2017,05,26,10,15,17.60
2017,05,26,10,16,17.60
2017,05,26,10,17,17.60
2017,05,26,10,18,17.70
2017,05,26,10,19,17.80
2017,05,26,10,20,17.90
2017,05,26,10,21,18.00
2017,05,26,10,22,18.10
2017,05,26,10,23,18.20
2017,05,26,10,24,18.20
2017,05,26,10,25,18.30
2017,05,26,10,26,18.30
2017,05,26,10,27,18.40
2017,05,26,10,28,18.50
2017,05,26,10,29,18.60
2017,05,26,10,30,18.70
2017,05,26,10,31,18.80
2017,05,26,10,32,18.80
2017,05,26,10,33,18.90
2017,05,26,10,34,18.90
2017,05,26,10,35,18.90
2017,05,26,10,36,19.00
2017,05,26,10,37,19.00
2017,05,26,10,38,19.00
2017,05,26,10,39,19.00
2017,05,26,10,40,19.00
2017,05,26,10,41,19.10
2017,05,26,10,42,19.10
2017,05,26,10,43,19.10
2017,05,26,10,44,19.20
2017,05,26,10,45,19.20
2017,05,26,10,46,19.30
2017,05,26,10,47,19.30
2017,05,26,10,48,19.30
2017,05,26,10,49,19.30
2017,05,26,10,50,19.30
2017,05,26,10,51,19.30
2017,05,26,10,52,19.30
2017,05,26,10,53,19.30
2017,05,26,10,54,19.30
2017,05,26,10,55,19.30
2017,05,26,10,56,19.30
2017,05,26,10,57,19.30
2017,05,26,10,58,19.30
2017,05,26,10,59,19.30
2017,05,26,11,00,19.40
2017,05,26,11,01,19.40
2017,05,26,11,02,19.50
2017,05,26,11,03,19.60
2017,05,26,11,04,19.70
2017,05,26,11,05,19.80
2017,05,26,11,06,19.80
2017,05,26,11,07,19.80
2017,05,26,11,08,19.80
2017,05,26,11,09,19.80
2017,05,26,11,10,19.80
2017,05,26,11,11,19.70
2017,05,26,11,12,19.70
2017,05,26,11,13,19.70
2017,05,26,11,14,19.70
2017,05,26,11,15,19.80
2017,05,26,11,16,19.80
2017,05,26,11,17,19.90
2017,05,26,11,18,19.90
2017,05,26,11,19,20.00
2017,05,26,11,20,20.00
2017,05,26,11,21,20.10
2017,05,26,11,22,20.10
2017,05,26,11,23,20.20
2017,05,26,11,24,20.20
2017,05,26,11,25,20.20
2017,05,26,11,26,20.30
2017,05,26,11,27,20.30
2017,05,26,11,28,20.40
2017,05,26,11,29,20.40
2017,05,26,11,30,20.40
2017,05,26,11,31,20.40
2017,05,26,11,32,20.40
2017,05,26,11,33,20.40
2017,05,26,11,34,20.40
2017,05,26,11,35,20.40
2017,05,26,11,36,20.50
2017,05,26,11,37,20.50
2017,05,26,11,38,20.60
2017,05,26,11,39,20.60
2017,05,26,11,40,20.60
2017,05,26,11,41,20.70
2017,05,26,11,42,20.80
2017,05,26,11,43,20.80
2017,05,26,11,44,20.80
2017,05,26,11,45,20.80
2017,05,26,11,46,20.80
2017,05,26,11,47,20.80
2017,05,26,11,48,20.80
2017,05,26,11,49,20.80
2017,05,26,11,50,20.80
2017,05,26,11,51,20.90
2017,05,26,11,52,20.90
2017,05,26,11,53,20.90
2017,05,26,11,54,20.90
2017,05,26,11,55,20.80
2017,05,26,11,56,20.80
2017,05,26,11,57,20.80
2017,05,26,11,58,20.70
2017,05,26,11,59,20.70
2017,05,26,12,00,20.60
2017,05,26,12,01,20.50
2017,05,26,12,02,20.50
2017,05,26,12,03,20.40
2017,05,26,12,04,20.40
2017,05,26,12,05,20.40
2017,05,26,12,06,20.40
2017,05,26,12,07,20.40
2017,05,26,12,08,20.50
2017,05,26,12,09,20.50
2017,05,26,12,10,20.60
2017,05,26,12,11,20.60
2017,05,26,12,12,20.60
2017,05,26,12,13,20.60
2017,05,26,12,14,20.70
2017,05,26,12,15,20.80
2017,05,26,12,16,20.80
2017,05,26,12,17,20.80
2017,05,26,12,18,20.80
2017,05,26,12,19,20.80
2017,05,26,12,20,20.80
2017,05,26,12,21,20.80
2017,05,26,12,22,20.80
2017,05,26,12,23,20.80
2017,05,26,12,24,20.80
2017,05,26,12,25,20.80
2017,05,26,12,26,20.70
2017,05,26,12,27,20.70
2017,05,26,12,28,20.70
2017,05,26,12,29,20.60
2017,05,26,12,30,20.60
2017,05,26,12,31,20.50
2017,05,26,12,32,20.40
2017,05,26,12,33,20.40
2017,05,26,12,34,20.50
2017,05,26,12,35,20.60
2017,05,26,12,36,20.60
2017,05,26,12,37,20.70
2017,05,26,12,38,20.70
2017,05,26,12,39,20.80
2017,05,26,12,40,20.80
2017,05,26,12,41,20.90
2017,05,26,12,42,20.90
2017,05,26,12,43,20.90
2017,05,26,12,44,20.90
2017,05,26,12,45,21.00
2017,05,26,12,46,21.10
2017,05,26,12,47,21.10
2017,05,26,12,48,21.20
2017,05,26,12,49,21.20
2017,05,26,12,50,21.30
2017,05,26,12,51,21.40
2017,05,26,12,52,21.50
2017,05,26,12,53,21.60
2017,05,26,12,54,21.60
2017,05,26,12,55,21.60
2017,05,26,12,56,21.60
2017,05,26,12,57,21.60
2017,05,26,12,58,21.50
2017,05,26,12,59,21.40
2017,05,26,13,00,21.40
2017,05,26,13,01,21.40
2017,05,26,13,02,21.50
2017,05,26,13,03,21.40
2017,05,26,13,04,21.50
2017,05,26,13,05,21.50
2017,05,26,13,06,21.50
2017,05,26,13,07,21.60
2017,05,26,13,08,21.60
2017,05,26,13,09,21.60
2017,05,26,13,10,21.70
2017,05,26,13,11,21.70
2017,05,26,13,12,21.80
2017,05,26,13,13,21.80
2017,05,26,13,14,21.90
2017,05,26,13,15,21.90
2017,05,26,13,16,21.90
2017,05,26,13,17,21.90
2017,05,26,13,18,22.00
2017,05,26,13,19,22.10
2017,05,26,13,20,22.10
2017,05,26,13,21,22.20
2017,05,26,13,22,22.20
2017,05,26,13,23,22.10
2017,05,26,13,24,22.10
2017,05,26,13,25,22.00
2017,05,26,13,26,22.00
2017,05,26,13,27,22.00
2017,05,26,13,28,22.10
2017,05,26,13,29,22.20
2017,05,26,13,30,22.30
2017,05,26,13,31,22.40
2017,05,26,13,32,22.50
2017,05,26,13,33,22.60
2017,05,26,13,34,22.70
2017,05,26,13,35,22.80
2017,05,26,13,36,22.90
2017,05,26,13,37,22.90
2017,05,26,13,38,23.00
2017,05,26,13,39,23.10
2017,05,26,13,40,23.20
2017,05,26,13,41,23.30
2017,05,26,13,42,23.40
2017,05,26,13,43,23.50
2017,05,26,13,44,23.50
2017,05,26,13,45,23.40
2017,05,26,13,46,23.40
2017,05,26,13,47,23.40
2017,05,26,13,48,23.20
2017,05,26,13,49,23.10
2017,05,26,13,50,23.00
2017,05,26,13,51,23.00
2017,05,26,13,52,23.00
2017,05,26,13,53,23.10
2017,05,26,13,54,23.10
2017,05,26,13,55,23.20
2017,05,26,13,56,23.20
2017,05,26,13,57,23.30
2017,05,26,13,58,23.40
2017,05,26,13,59,23.40
2017,05,26,14,00,23.40
2017,05,26,14,01,23.40
2017,05,26,14,02,23.50
2017,05,26,14,03,23.50
2017,05,26,14,04,23.60
2017,05,26,14,05,23.60
2017,05,26,14,06,23.60
2017,05,26,14,07,23.60
2017,05,26,14,08,23.60
2017,05,26,14,09,23.60
2017,05,26,14,10,23.70
2017,05,26,14,11,23.70
2017,05,26,14,12,23.70
2017,05,26,14,13,23.70
2017,05,26,14,14,23.60
2017,05,26,14,15,23.60
2017,05,26,14,16,23.60
2017,05,26,14,17,23.60
2017,05,26,14,18,23.60
2017,05,26,14,19,23.60
2017,05,26,14,20,23.60
2017,05,26,14,21,23.70
2017,05,26,14,22,23.80
2017,05,26,14,23,23.80
2017,05,26,14,24,23.90
2017,05,26,14,25,23.90
2017,05,26,14,26,23.90
2017,05,26,14,27,24.00
2017,05,26,14,28,24.10
2017,05,26,14,29,24.10
2017,05,26,14,30,24.20
2017,05,26,14,31,24.20
2017,05,26,14,32,24.10
2017,05,26,14,33,24.00
2017,05,26,14,34,23.90
2017,05,26,14,35,23.90
2017,05,26,14,36,23.80
2017,05,26,14,37,23.70
2017,05,26,14,38,23.70
2017,05,26,14,39,23.70
2017,05,26,14,40,23.60
2017,05,26,14,41,23.70
2017,05,26,14,42,23.70
2017,05,26,14,43,23.70
2017,05,26,14,44,23.80
2017,05,26,14,45,23.80
2017,05,26,14,46,23.80
2017,05,26,14,47,23.90
2017,05,26,14,48,23.90
2017,05,26,14,49,24.00
2017,05,26,14,50,24.10
2017,05,26,14,51,24.10
2017,05,26,14,52,24.10
2017,05,26,14,53,24.10
2017,05,26,14,54,24.20
2017,05,26,14,55,24.20
2017,05,26,14,56,24.20
2017,05,26,14,57,24.30
2017,05,26,14,58,24.40
2017,05,26,14,59,24.50
2017,05,26,15,00,24.50
2017,05,26,15,01,24.60
2017,05,26,15,02,24.70
2017,05,26,15,03,24.70
2017,05,26,15,04,24.80
2017,05,26,15,05,24.80
2017,05,26,15,06,24.80
2017,05,26,15,07,24.80
2017,05,26,15,08,24.80
2017,05,26,15,09,24.80
2017,05,26,15,10,24.80
2017,05,26,15,11,24.80
2017,05,26,15,12,24.80
2017,05,26,15,13,24.90
2017,05,26,15,14,24.90
2017,05,26,15,15,24.90
2017,05,26,15,16,24.90
2017,05,26,15,17,24.80
2017,05,26,15,18,24.70
2017,05,26,15,19,24.60
2017,05,26,15,20,24.60
2017,05,26,15,21,24.60
2017,05,26,15,22,24.60
2017,05,26,15,23,24.50
2017,05,26,15,24,24.50
2017,05,26,15,25,24.50
2017,05,26,15,26,24.50
2017,05,26,15,27,24.50
2017,05,26,15,28,24.60
2017,05,26,15,29,24.60
2017,05,26,15,30,24.70
2017,05,26,15,31,24.80
2017,05,26,15,32,24.90
2017,05,26,15,33,25.00
2017,05,26,15,34,25.10
2017,05,26,15,35,25.10
2017,05,26,15,36,25.20
2017,05,26,15,37,25.20
2017,05,26,15,38,25.20
2017,05,26,15,39,25.30
2017,05,26,15,40,25.30
2017,05,26,15,41,25.40
2017,05,26,15,42,25.50
2017,05,26,15,43,25.60
2017,05,26,15,44,25.70
2017,05,26,15,45,25.80
2017,05,26,15,46,25.90
2017,05,26,15,47,25.90
2017,05,26,15,48,25.90
2017,05,26,15,49,25.90
2017,05,26,15,50,25.90
2017,05,26,15,51,25.80
2017,05,26,15,52,25.80
2017,05,26,15,53,25.90
2017,05,26,15,54,25.90
2017,05,26,15,55,26.00
2017,05,26,15,56,26.10
2017,05,26,15,57,26.20
2017,05,26,15,58,26.30
2017,05,26,15,59,26.30
2017,05,26,16,00,26.40
2017,05,26,16,01,26.40
2017,05,26,16,02,26.40
2017,05,26,16,03,26.40
2017,05,26,16,04,26.40
2017,05,26,16,05,26.30
2017,05,26,16,06,26.30
2017,05,26,16,07,26.30
2017,05,26,16,08,26.30
2017,05,26,16,09,26.40
2017,05,26,16,10,26.40
2017,05,26,16,11,26.50
2017,05,26,16,12,26.60
2017,05,26,16,13,26.60
2017,05,26,16,14,26.50
2017,05,26,16,15,26.30
2017,05,26,16,16,26.20
2017,05,26,16,17,26.00
2017,05,26,16,18,25.90
2017,05,26,16,19,25.80
2017,05,26,16,20,25.70
2017,05,26,16,21,25.70
2017,05,26,16,22,25.70
2017,05,26,16,23,25.60
2017,05,26,16,24,25.60
2017,05,26,16,25,25.60
2017,05,26,16,26,25.60
2017,05,26,16,27,25.60
2017,05,26,16,28,25.60
2017,05,26,16,29,25.50
2017,05,26,16,30,25.40
2017,05,26,16,31,25.30
2017,05,26,16,32,25.20
2017,05,26,16,33,25.20
2017,05,26,16,34,25.20
2017,05,26,16,35,25.20
2017,05,26,16,36,25.20
2017,05,26,16,37,25.30
2017,05,26,16,38,25.40
2017,05,26,16,39,25.50
2017,05,26,16,40,25.50
2017,05,26,16,41,25.40
2017,05,26,16,42,25.20
2017,05,26,16,43,25.10
2017,05,26,16,44,25.00
2017,05,26,16,45,24.90
2017,05,26,16,46,24.80
2017,05,26,16,47,24.70
2017,05,26,16,48,24.70
2017,05,26,16,49,24.70
2017,05,26,16,50,24.60
2017,05,26,16,51,24.70
2017,05,26,16,52,24.70
2017,05,26,16,53,24.70
2017,05,26,16,54,24.70
2017,05,26,16,55,24.70
2017,05,26,16,56,24.60
2017,05,26,16,57,24.50
2017,05,26,16,58,24.50
2017,05,26,16,59,24.50
2017,05,26,17,00,24.50
2017,05,26,17,01,24.50
2017,05,26,17,02,24.40
2017,05,26,17,03,24.40
2017,05,26,17,04,24.40
2017,05,26,17,05,24.40
2017,05,26,17,06,24.40
2017,05,26,17,07,24.40
2017,05,26,17,08,24.40
2017,05,26,17,09,24.50
2017,05,26,17,10,24.50
2017,05,26,17,11,24.60
2017,05,26,17,12,24.50
2017,05,26,17,13,24.40
2017,05,26,17,14,24.40
2017,05,26,17,15,24.50
2017,05,26,17,16,24.50
2017,05,26,17,17,24.60
2017,05,26,17,18,24.60
2017,05,26,17,19,24.70
2017,05,26,17,20,24.70
2017,05,26,17,21,24.70
2017,05,26,17,22,24.80
2017,05,26,17,23,24.80
2017,05,26,17,24,24.80
2017,05,26,17,25,24.80
2017,05,26,17,26,24.90
2017,05,26,17,27,24.90
2017,05,26,17,28,24.90
2017,05,26,17,29,24.90
2017,05,26,17,30,24.90
2017,05,26,17,31,24.90
2017,05,26,17,32,24.90
2017,05,26,17,33,25.00
2017,05,26,17,34,25.00
2017,05,26,17,35,25.00
2017,05,26,17,36,25.10
2017,05,26,17,37,25.10